Погода в Рефтинском

Россия / Свердловская область     57°05′28″N   61°40′27″E
темп.,
°C
ветер,
м/с
пор.,
м/с
влажн.,
%
обл.,
%
осадки,
мм/ч
давл.,
гПа
погр.,
м
9 мая, вс
вс923:00+13сз2274100 0.0 101646
02:00+12ссз2472100 0.0 101575
05:00+12с2573100 0.0 1016102
08:00+16св2355100 0.0 1016234
11:00+21всв243085 0.0 10161694
14:00+23вюв5624100 0.0 10163158
17:00+22юв4526100 0.0 10162607
20:00+18в2240100 0.0 101817
10 мая, пн
пн1023:00+15в2348100 0.0 101953
02:00+13всв226299 0.1 102134
05:00+11вюв267197 0.1 1022111
08:00+15в355061 0.0 1023395
11:00+19всв463388 0.0 10231392
14:00+21в45256 0.0 10231957
17:00+21вюв442494 0.0 10232046
20:00+17юв37365 0.0 1024177
11 мая, вт
вт1123:00+12ююв22472 0.0 102629
02:00+10ююз22513 0.0 102719
05:00+9юз225529 0.0 102811
08:00+14ююз2341100 0.0 1028234
11:00+18ююз2330100 0.0 10281002
14:00+21зюз2227100 0.0 10271476
17:00+20зсз2333100 0.0 10271302
20:00+17сз225646 0.0 102831
12 мая, ср
ср1223:00+13сз38775 0.0 1028163
02:00+11сз27908 0.0 1029152
05:00+9ссз279717 0.0 1030196
08:00+13с3560100 0.0 1030545
11:00+17с343998 0.0 10301224
14:00+20ссз3434100 0.0 10291748
17:00+21сз343551 0.0 10281886
20:00+18зсз2251100 0.0 102819
13 мая, чт
чт1323:00+14ссз116460 0.0 102810
02:00+12зсз227479 0.0 102820
05:00+11зсз268062 0.0 102897
08:00+17сз475638 0.0 1027368
11:00+23сз453960 0.0 10261538
14:00+25сз463147 0.0 10252180
17:00+26ссз46296 0.0 10242462
20:00+21ссз224536 0.0 102518